This is the latest recevied weather packets stored in our database for station/object KC0UFP. If no packets are shown the sender has not sent any weather packets the latest 10 day(s).
| Time | Temp. | Humidity | Pressure | Rain* | Wind** | Luminosity | Snow |
|---|---|---|---|---|---|---|---|
| 1777931233 | 26.11° C | 40% | 1008.2 hPa | 0 mm | - | 552 W/m² | - |
| 1777930930 | 26.67° C | 40% | 1008.3 hPa | 0 mm | - | 577 W/m² | - |
| 1777930627 | 26.11° C | 40% | 1008.1 hPa | 0 mm | - | 584 W/m² | - |
| 1777930323 | 26.11° C | 40% | 1008.2 hPa | 0 mm | - | 603 W/m² | - |
| 1777930020 | 26.67° C | 39% | 1008.1 hPa | 0 mm | - | 624 W/m² | - |
| 1777929717 | 26.67° C | 38% | 1008 hPa | 0 mm | - | 644 W/m² | - |
| 1777929414 | 26.11° C | 39% | 1008.1 hPa | 0 mm | - | 659 W/m² | - |
| 1777929110 | 26.67° C | 38% | 1008.2 hPa | 0 mm | - | 687 W/m² | - |
| 1777928808 | 27.22° C | 38% | 1008.3 hPa | 0 mm | - | 705 W/m² | - |
| 1777928504 | 26.67° C | 36% | 1008.2 hPa | 0 mm | - | 712 W/m² | - |
| 1777928202 | 26.11° C | 38% | 1008.3 hPa | 0 mm | - | 724 W/m² | - |
| 1777927899 | 26.67° C | 36% | 1008.4 hPa | 0 mm | - | 749 W/m² | - |
| 1777927597 | 26.67° C | 37% | 1008.3 hPa | 0 mm | - | 764 W/m² | - |
| 1777927296 | 26.67° C | 36% | 1008.4 hPa | 0 mm | - | 771 W/m² | - |
| 1777926994 | 26.67° C | 36% | 1008.5 hPa | 0 mm | - | 794 W/m² | - |
| 1777926692 | 26.11° C | 37% | 1008.3 hPa | 0 mm | - | 804 W/m² | - |
| 1777926392 | 26.67° C | 37% | 1008.6 hPa | 0 mm | - | 818 W/m² | - |
| 1777926089 | 26.67° C | 37% | 1008.7 hPa | 0 mm | - | 827 W/m² | - |
| 1777925785 | 26.67° C | 37% | 1008.7 hPa | 0 mm | - | 823 W/m² | - |
| 1777925484 | 26.67° C | 37% | 1008.9 hPa | 0 mm | - | 856 W/m² | - |
| 1777925180 | 26.11° C | 38% | 1009.1 hPa | 0 mm | - | 859 W/m² | - |
| 1777924877 | 26.67° C | 37% | 1008.8 hPa | 0 mm | - | 876 W/m² | - |
| 1777924573 | 26.11° C | 39% | 1008.9 hPa | 0 mm | - | 886 W/m² | - |
| 1777924269 | 26.11° C | 37% | 1008.9 hPa | 0 mm | - | 899 W/m² | - |
| 1777923966 | 26.11° C | 37% | 1009 hPa | 0 mm | - | 908 W/m² | - |
* Rain latest hour (hover to see other rain measurements)
** Current wind speed in m/s (hover to see current wind gust speed)